Regional Weather Roundup
Issued by NWS

Home | Current Version | Previous Version | Graphics & Text | Print | Product List | Glossary On
Versions: 1 2 3 4 5 6 7 8 9 10 11 12 13 14 15 16 17 18 19 20 21 22 23 24 25 26 27 28 29 30 31 32 33 34 35 36 37 38 39 40 41 42 43 44 45 46 47 48 49 50
000
ASUS43 KLOT 291612
RWRIL

ILLINOIS REGIONAL WEATHER ROUNDUP
NATIONAL WEATHER SERVICE CHICAGO/ROMEOVILLE IL
1100 AM CDT WED JUL 29 2015

NOTE: "FAIR" INDICATES FEW OR NO CLOUDS BELOW 12,000 FEET WITH NO
SIGNIFICANT WEATHER AND/OR OBSTRUCTIONS TO VISIBILITY.

* THESE STATIONS ARE NOT UNDER NWS QUALITY CONTROL. THEY ALSO MAY NOT
  REPORT WEATHER SUCH AS PRECIPITATION OR FOG.

ILZ001-002-007-009-015-016-024-291700-
NORTHWEST ILLINOIS

CITY           SKY/WX    TMP DP  RH WIND       PRES   REMARKS
MOLINE         SUNNY     82  59  45 N9G17     30.05R HX  82
STERLING*      PTSUNNY   82  63  51 NW10G16   30.03R HX  83
SAVANNA*       MOSUNNY   81  50  33 NW13G18   30.03S HX  80
$$

ILZ003-004-008-010-011-017-018-291700-
NORTH CENTRAL ILLINOIS

CITY           SKY/WX    TMP DP  RH WIND       PRES   REMARKS
ROCKFORD       PTSUNNY   80  56  43 NW16      30.03R HX  80
FREEPORT*      MOSUNNY   77  59  52 W10       30.05R
ROCHELLE*      SUNNY     82  62  50 NW13      30.03R HX  82
DE KALB*       SUNNY     80  60  51 NW13G23   30.03R HX  81
PERU*          MOSUNNY   81  63  54 NW15      30.03R HX  82
$$

ILZ005-006-012>014-019>023-291700-
NORTHEAST ILLINOIS

CITY           SKY/WX    TMP DP  RH WIND       PRES   REMARKS
CHICAGO-OHARE  PTSUNNY   82  66  58 NW13      29.98R HX  84
CHICAGO-MIDWAY CLOUDY    83  72  69 NW12      29.97R HX  88
AURORA         SUNNY     81  64  56 NW16      30.01R HX  82
LANSING*       CLOUDY    82  71  69 W7        29.97S HX  85
JOLIET*        CLOUDY    80  74  82 NW6       30.00R HX  85
WAUKEGAN       PTSUNNY   80  64  58 VRB6      29.98R HX  82
DUPAGE AIRPORT SUNNY     83  63  50 NW18      30.00R HX  84
KANKAKEE*      PTSUNNY   81  75  84 N8        30.00R HX  86
WHEELING       PTSUNNY   83  62  49 NW12G20   29.99R HX  84
MORRIS*        PTSUNNY   80  72  76 NW8       29.99R HX  84
ROMEOVILLE*    CLOUDY    79  72  80 NW10      30.00R HX  81
NORTHERLY ISL    N/A     78  72  81 N7          N/A  HX  80
$$

LMZ740>746-291700-
SOUTHERN LAKE MICHIGAN

STATION/POSITION SKY/WX   TEMP    WIND        PRES    VSBY  WAVE
                          AIR SEA DIR/SP/G                  HT/PER
                          (F)     (DEG/KT/KT) (MB)    (MI)  (FT/S)
HARRISON CRIB              76     350/  9/ 10   N/A
BURNHAM HARBOR             78      20/  3/ 10   N/A
CALUMET HARBOR             80     290/  4/  8   N/A
BURNS HARBOR               75     250/  6/  7 1014.9S
MICHIGAN CITY              75     210/  9/  9   N/A
MICHIGAN CITY 6N           76 74  290/  8/ 10   N/A           1/ 2
ST. JOSEPH                 75 75  300/  8/ 10   N/A           1/ 3
$$

ILZ025>027-034>036-040-047-049-050-058-095>099-291700-
WEST-CENTRAL ILLINOIS

CITY           SKY/WX    TMP DP  RH WIND       PRES   REMARKS
QUINCY         MOSUNNY   82  67  60 N12       30.08R HX  84
GALESBURG*     SUNNY     80  67  62 NW10      30.07R HX  83
MACOMB*        SUNNY     81  67  61 N9        30.09R HX  83
JACKSONVILLE*  PTSUNNY   82  74  77 NW10      30.05R HX  88
PITTSFIELD*    PTSUNNY   81  72  74 NW10G16   30.08R HX  86
$$

ILZ028>032-037-038-041>044-048-051>054-059>061-291700-
CENTRAL ILLINOIS

CITY           SKY/WX    TMP DP  RH WIND       PRES   REMARKS
PONTIAC        PTSUNNY   82  76  83 NW9       30.02R HX  90
BLOOMINGTON    PTSUNNY   82  76  82 NW10      30.04R HX  89
DECATUR        CLOUDY    81  75  82 NW10      30.02R HX  87
PEORIA         MOSUNNY   83  68  60 N8        30.03R HX  86
LACON*         MOSUNNY   80  66  62 NW10      30.02R HX  83
LINCOLN*       PTSUNNY   85  74  70 N5        30.01S HX  92
SPRINGFIELD    PTSUNNY   86  75  69 N14       30.02S HX  95
TAYLORVILLE    CLOUDY    79  73  83 N8        30.02S HX  82
$$

ILZ033-039-045-046-055>057-062-063-291700-
EAST-CENTRAL ILLINOIS

CITY           SKY/WX    TMP DP  RH WIND       PRES   REMARKS
CHAMPAIGN      CLOUDY    81  75  82 NW8       30.02R HX  87
DANVILLE*      CLOUDY    80  76  85 W7        29.98R HX  86
RANTOUL*       PTSUNNY   82  76  81 W9        30.01R HX  90
MATTOON        CLOUDY    83  76  79 NW6       29.99R HX  91
PARIS*         CLOUDY    82  76  82 CALM      30.00S HX  90
$$

ILZ079-100>102-291700-
SOUTHWEST ILLINOIS

CITY           SKY/WX    TMP DP  RH WIND       PRES   REMARKS
ALTON          PTSUNNY   79  72  78 N9        30.03R HX  82
BELLEVILLE     MOSUNNY   87  77  72 NW10      30.00R HX  99
CAHOKIA*       MOSUNNY   88  72  58 N9        30.01R HX  94
SPARTA*        SUNNY     87  78  76 W6        30.01F HX 100
$$

ILZ064>066-069>071-074>076-080>082-084>086-088>090-092>094-291700-
SOUTH-CENTRAL ILLINOIS

CITY           SKY/WX    TMP DP  RH WIND       PRES   REMARKS
CARBONDALE     SUNNY     89  78  70 W6        30.00S HX 103
CAIRO*         SUNNY     89  80  73 NW6       30.01F HX 107
EFFINGHAM*     CLOUDY    85  76  75 S5        30.00S HX  94
MARION         MOSUNNY   91  81  70 W9        30.01F HX 110
MT. VERNON     MOSUNNY   90  77  66 W6        29.99F HX 102
CENTRALIA*     MOSUNNY   87  73  62 SW3       29.99F HX  94
SALEM*         PTSUNNY   87  78  75 W3        29.98F HX 100
METROPOLIS*    SUNNY     90  80  73 W6        30.02S HX 107
$$

ILZ067-068-072-073-078-083-087-091-291700-
SOUTHEAST ILLINOIS

CITY           SKY/WX    TMP DP  RH WIND       PRES   REMARKS
LAWRENCEVILLE  CLOUDY    83  75  77 SW5       29.98F HX  90
FLORA*         CLOUDY    87  78  74 CALM      29.98F HX  98
FAIRFIELD*     MOSUNNY   87  79  76 CALM      29.97F HX 102
HARRISBURG*    MOSUNNY   89  79  73 W6        30.00F HX 104
ROBINSON*      PTSUNNY   84  76  76 S6        29.99S HX  93
CARMI*         PTSUNNY   83  74  73 MISG      30.00S HX  89
$$

ABBREVIATIONS USED IN REMARKS
   TC - TEMPERATURE IN CELSIUS
  WCI - WIND CHILL INDEX
   HX - HEAT INDEX
  VSB - VISIBILITY
$$




USA.gov is the U.S. government's official web portal to all federal, state and local government web resources and services.